STARLINK-32949, 63145

Orbit data source: Space-Track

STARLINK-32949, 63145 is a payload satellite owned by SpaceX/Seattle (US) in LEO that was launched on Mon, 03 Mar 2025 UTC via an FALCON 9 launch vehicle from the Air Force Eastern Test Range (AFETR). Payload-class satellites include a variety of spacecraft equipped with specific instruments for various scientific and technological missions. These include communications satellites like Starlink; space stations such as the ISS; scientific satellites like the Hubble; Earth observation satellites from companies like Planet Labs, Umbra, and HawkEye 360; GPS; miniature CubeSats for education and research; and military/defense satellites.

Loading next visibility...
Identifier
63145, 2025-043P
Orbit
LEO
Last TLE update
1 day ago
Origin
Manufacturer
SpaceX/Seattle
Mission
Operational Commercial Communications
Bus & Motor
STARLINK V2M, Unknown motor
Mass
730 kg wet, ~700 kg dry
Launch date (UTC)
2025-03-03 (4 months ago)
Launch vehicle
FALCON 9
Launch site
Air Force Eastern Test Range (AFETR)
Object type
Payload
Rocket body
Debris
Shape & HBR
Box + 2 Pan, 29 m
Radar Cross Section
33.884 m², Large (>1 m²)

Expand to show TLE details & history

TLE from 1 day ago
0 STARLINK-32949
1 63145U 25043P   25190.80854265  .00019147  00000-0  70295-3 0  9996
2 63145  42.9953 308.1683 0002618 278.1201  81.9354 15.27603760 20784
Epoch: 2025-07-09T19:24Z
TLE epoch observation values (Epoch: 2025-07-09T19:24:18.084Z)
Latitude
-0.00001°
Longitude
89.10908°
Altitude
482.501 km
Speed
7.626 km/s
True Right ascension
20h 32m 40s
True Declination
0° 00' 00"
Sunlit
Object was in full shadow at epoch
Visualization orbit readout
Latitude
16.90903°
Longitude
-116.62033°
Altitude
483.155 km
Speed
7.626 km/s
Apparent Right ascension
04h 17m 54s
Apparent Declination
-14° 42' 42"
Sunlit
Object is in daylight
Visualization observer readout
Local Sidereal Time
12:35:45
Azimuth
281.095° WNW
Elevation
-35.641°
Doppler factor
1
Orbital elements
Apogee altitude
486.721 km
Perigee altitude
483.127 km
Semi-major axis
6,863.061 km
Eccentricity
0.00026
Inclination
42.9953°
RAAN
308.1683°
Arg. of periapsis
278.1201°
True anomaly
Unknown
Mean anomaly
81.9354°
Eccentric anomaly
Unknown
Mean motion
3.81739 °/min
Orbital period
94.31 mins
BSTAR
0.00070295
Loading maneuver chart data...
Loading SW <> Apogee altitude chart data...
Loading historical data...
Loading historical data...
Loading historical data...
Loading historical data...
Loading historical data...
Loading historical data...
Loading historical data...

STARLINK-32949 Visibility forecast

Observer location: undefined°, undefined°

Span
Click to sort rows by Start time (UTC) header in descending order
Start Az.
Max El. time (UTC)
Max El. Az.
Max El.
End time (UTC)
End Az.
6 mins2025-07-11 10:50:32.529Z222.082° SW2025-07-11 10:53:32.529Z162.058° S33.913°2025-07-11 10:56:32.529Z84.561° E
5 mins2025-07-11 12:30:32.529Z273.157° WNW2025-07-11 12:32:32.529Z339.24° N41.674°2025-07-11 12:35:32.529Z68.566° E
5 mins2025-07-11 14:09:32.529Z294.37° NW2025-07-11 14:11:32.529Z344.661° N38.717°2025-07-11 14:14:32.529Z81.807° E
6 mins2025-07-11 15:48:32.529Z279.24° WNW2025-07-11 15:50:32.529Z231.769° WSW40.337°2025-07-11 15:54:32.529Z123.695° SE
|